Total_Precipitation_Accumulation
1.64 1.82 2.07 2.34 2.94 3.46 3.98 4.08 3.99 3.26 2.60 2.28 2.03 1.90 1.71 1.52 1.51 1.45 1.32 1.26 1.15 1.12 1.28 1.17 1.07 1.06 1.08 1.04 1.18 1.31 1.31 1.08 1.28 1.43 0.97 0.67 0.52 0.45 0.36 0.35 0.40 0.43 0.50
1.68 2.05 2.53 2.76 2.69 3.04 3.56 3.53 3.05 2.48 2.04 1.74 1.59 1.47 1.39 1.25 1.14 1.02 0.96 0.92 0.92 0.95 1.02 1.00 0.88 0.85 0.88 0.85 0.93 1.06 1.06 0.94 1.20 1.35 1.22 0.87 0.66 0.52 0.37 0.37 0.38 0.42 0.54
1.53 1.92 2.33 2.60 2.49 2.70 2.73 2.30 1.93 1.63 1.38 1.21 1.13 1.12 1.05 0.93 0.75 0.63 0.59 0.63 0.67 0.68 0.66 0.66 0.69 0.73 0.73 0.74 0.81 0.96 1.08 0.95 0.97 1.19 1.33 1.06 0.76 0.67 0.51 0.50 0.54 0.59 0.68
0.98 1.26 1.48 1.81 1.99 1.95 1.81 1.63 1.42 1.21 1.08 1.04 0.96 0.96 0.82 0.70 0.59 0.49 0.49 0.50 0.51 0.49 0.47 0.49 0.58 0.65 0.69 0.74 0.68 0.72 0.89 0.94 0.86 0.95 1.06 1.08 1.09 1.03 0.76 0.57 0.54 0.61 0.65
0.60 0.75 0.83 1.00 1.20 1.29 1.26 1.15 1.23 1.21 1.07 0.98 0.90 0.86 0.73 0.60 0.50 0.49 0.53 0.52 0.50 0.47 0.43 0.42 0.44 0.53 0.60 0.66 0.68 0.69 0.75 0.81 0.80 0.81 0.86 0.93 1.04 1.03 0.95 0.71 0.55 0.55 0.54
0.42 0.51 0.53 0.57 0.66 0.75 0.82 0.86 0.94 1.01 0.92 0.84 0.80 0.78 0.70 0.61 0.51 0.47 0.47 0.44 0.44 0.44 0.43 0.42 0.44 0.45 0.46 0.49 0.56 0.62 0.67 0.72 0.75 0.74 0.81 0.89 0.88 0.88 0.99 0.87 0.71 0.65 0.59
0.29 0.36 0.37 0.39 0.45 0.48 0.55 0.59 0.64 0.70 0.69 0.69 0.70 0.69 0.65 0.58 0.50 0.42 0.38 0.36 0.33 0.35 0.39 0.40 0.46 0.51 0.51 0.51 0.52 0.58 0.64 0.71 0.76 0.75 0.78 0.86 0.90 0.91 0.99 0.96 0.80 0.74 0.77
0.21 0.21 0.23 0.27 0.31 0.29 0.34 0.38 0.38 0.41 0.43 0.53 0.58 0.52 0.49 0.42 0.39 0.44 0.41 0.35 0.30 0.32 0.38 0.43 0.46 0.49 0.54 0.56 0.63 0.66 0.71 0.76 0.79 0.77 0.88 0.93 0.89 0.98 1.04 1.10 1.12 1.01 0.99
0.12 0.12 0.12 0.13 0.18 0.19 0.20 0.22 0.27 0.33 0.33 0.35 0.41 0.40 0.38 0.35 0.37 0.42 0.39 0.32 0.30 0.27 0.29 0.35 0.46 0.47 0.50 0.57 0.66 0.71 0.75 0.81 0.86 0.89 0.99 1.05 1.03 1.03 1.03 1.16 1.26 1.30 1.25
0.06 0.07 0.07 0.09 0.13 0.15 0.17 0.20 0.26 0.27 0.27 0.27 0.25 0.23 0.29 0.34 0.40 0.41 0.34 0.29 0.27 0.24 0.26 0.29 0.35 0.39 0.42 0.51 0.64 0.71 0.79 0.91 0.98 0.98 1.00 1.08 1.12 1.16 1.16 1.17 1.25 1.38 1.46
0.04 0.04 0.04 0.07 0.11 0.13 0.16 0.19 0.23 0.25 0.24 0.23 0.23 0.26 0.32 0.33 0.38 0.51 0.48 0.33 0.27 0.24 0.22 0.22 0.23 0.24 0.28 0.36 0.53 0.72 0.84 0.95 1.00 1.02 1.06 1.10 1.18 1.20 1.12 1.17 1.23 1.33 1.46
0.04 0.04 0.05 0.06 0.09 0.14 0.15 0.16 0.21 0.25 0.27 0.27 0.23 0.25 0.31 0.32 0.32 0.37 0.41 0.35 0.29 0.25 0.22 0.20 0.19 0.17 0.19 0.29 0.45 0.62 0.77 0.92 1.03 1.06 1.08 0.98 0.99 1.09 1.14 1.17 1.21 1.24 1.37
0.05 0.06 0.07 0.11 0.10 0.13 0.16 0.18 0.21 0.25 0.28 0.35 0.32 0.27 0.24 0.21 0.19 0.23 0.27 0.29 0.32 0.34 0.30 0.27 0.25 0.29 0.34 0.41 0.49 0.56 0.68 0.83 0.92 0.95 0.93 0.90 0.93 0.94 1.04 1.10 1.12 1.13 1.14
0.05 0.06 0.07 0.10 0.16 0.16 0.18 0.20 0.22 0.25 0.32 0.32 0.30 0.27 0.25 0.25 0.26 0.26 0.27 0.30 0.32 0.34 0.33 0.32 0.35 0.41 0.47 0.49 0.49 0.52 0.60 0.66 0.71 0.76 0.74 0.72 0.78 0.84 0.90 0.93 0.95 1.00 1.05
0.07 0.06 0.07 0.10 0.19 0.24 0.23 0.23 0.23 0.26 0.33 0.39 0.38 0.32 0.27 0.27 0.29 0.29 0.28 0.29 0.30 0.30 0.36 0.40 0.42 0.45 0.48 0.45 0.50 0.54 0.49 0.55 0.53 0.50 0.53 0.55 0.59 0.65 0.74 0.75 0.79 0.88 0.94
0.13 0.11 0.10 0.12 0.16 0.20 0.23 0.21 0.22 0.24 0.30 0.37 0.44 0.47 0.42 0.37 0.36 0.37 0.35 0.36 0.35 0.36 0.41 0.44 0.46 0.47 0.41 0.40 0.39 0.40 0.38 0.40 0.44 0.44 0.42 0.40 0.45 0.49 0.55 0.59 0.65 0.74 0.83
0.13 0.13 0.13 0.14 0.15 0.17 0.18 0.19 0.18 0.23 0.37 0.44 0.45 0.54 0.60 0.53 0.55 0.57 0.51 0.49 0.47 0.48 0.50 0.52 0.54 0.56 0.58 0.43 0.34 0.29 0.31 0.35 0.40 0.45 0.47 0.35 0.28 0.37 0.46 0.54 0.54 0.57 0.64
0.14 0.15 0.12 0.11 0.12 0.13 0.14 0.15 0.19 0.24 0.37 0.44 0.43 0.54 0.66 0.61 0.63 0.64 0.61 0.64 0.70 0.71 0.74 0.74 0.72 0.72 0.67 0.52 0.37 0.29 0.27 0.32 0.37 0.42 0.46 0.44 0.39 0.39 0.45 0.55 0.57 0.55 0.52
0.13 0.13 0.14 0.13 0.13 0.15 0.16 0.19 0.27 0.36 0.46 0.53 0.58 0.66 0.78 0.81 0.84 0.84 0.85 0.90 0.96 1.00 1.04 1.06 1.01 0.95 0.88 0.70 0.47 0.38 0.36 0.42 0.45 0.48 0.49 0.49 0.45 0.38 0.34 0.44 0.52 0.55 0.55
0.14 0.16 0.19 0.19 0.19 0.22 0.26 0.32 0.42 0.55 0.65 0.67 0.69 0.77 0.92 1.00 1.00 1.00 1.03 1.07 1.15 1.18 1.15 1.06 0.98 0.93 0.93 0.81 0.56 0.49 0.50 0.58 0.61 0.68 0.66 0.58 0.53 0.45 0.35 0.40 0.49 0.51 0.54
0.15 0.18 0.22 0.27 0.31 0.34 0.40 0.48 0.57 0.66 0.67 0.69 0.76 0.82 1.01 1.20 1.20 1.22 1.21 1.22 1.27 1.32 1.32 1.26 1.19 1.13 1.08 0.97 0.66 0.55 0.59 0.66 0.71 0.68 0.69 0.65 0.56 0.44 0.35 0.35 0.43 0.45 0.51
0.16 0.19 0.23 0.26 0.34 0.43 0.53 0.63 0.65 0.66 0.71 0.75 0.80 0.90 1.10 1.19 1.24 1.34 1.36 1.40 1.39 1.36 1.36 1.39 1.32 1.28 1.24 1.05 0.81 0.62 0.63 0.75 0.88 0.87 0.84 0.83 0.71 0.56 0.45 0.37 0.35 0.37 0.42
0.16 0.18 0.21 0.26 0.33 0.43 0.59 0.73 0.76 0.77 0.76 0.77 0.81 0.90 1.00 1.08 1.19 1.25 1.23 1.28 1.35 1.37 1.39 1.39 1.36 1.35 1.42 1.26 0.92 0.75 0.72 0.80 0.95 1.05 1.09 0.97 0.82 0.72 0.60 0.54 0.49 0.45 0.45
0.17 0.18 0.21 0.28 0.33 0.40 0.54 0.66 0.72 0.75 0.74 0.71 0.71 0.80 0.95 1.01 1.08 1.21 1.22 1.28 1.34 1.39 1.48 1.50 1.42 1.39 1.48 1.43 1.13 0.90 0.78 0.75 0.82 0.92 0.97 0.92 0.88 0.80 0.71 0.61 0.53 0.45 0.46
0.15 0.17 0.22 0.29 0.33 0.43 0.57 0.68 0.73 0.78 0.80 0.77 0.73 0.75 0.84 0.93 1.00 1.13 1.22 1.24 1.25 1.20 1.23 1.28 1.26 1.28 1.39 1.34 1.10 0.95 0.87 0.82 0.83 0.89 0.95 0.96 0.97 0.87 0.79 0.71 0.66 0.63 0.62
0.14 0.19 0.25 0.32 0.35 0.42 0.52 0.62 0.76 0.90 0.95 0.89 0.81 0.77 0.77 0.86 0.92 1.01 1.03 0.94 0.91 0.88 0.87 0.90 0.85 0.85 1.02 1.04 0.85 0.73 0.75 0.75 0.72 0.77 0.86 0.92 0.96 0.92 0.84 0.80 0.75 0.75 0.72